Weather History for Lafayette, LA

Change the Weather History Date:

Sunday, July 14, 2013

  Actual Average Record
Temperature  
Mean Temperature 80 °F 83 °F  
Max Temperature 88 °F 92 °F 98 °F (1923)
Min Temperature 72 °F 75 °F 63 °F (1990)
Cooling Degree Days 15 18  
Month to date cooling degree days 232 252  
Year to date cooling degree days 1237 1364  
Since 1 June cooling degree days 773 750  
Growing Degree Days 30 (Base 50)    
Moisture  
Dew Point 71 °F    
Average Humidity 74    
Maximum Humidity 93    
Minimum Humidity 55    
Precipitation  
Precipitation 0.00 in 0.21 in 4.78 in (1989)
Month to date precipitation 1.75 3.21  
Year to date precipitation 37.03 32.91  
Sea Level Pressure  
Sea Level Pressure 29.94 in    
Wind  
Wind Speed 2 mph (ENE)    
Max Wind Speed 9 mph    
Max Gust Speed 14 mph    
Visibility 9 miles    
Events      
T = Trace of Precipitation, MM = Missing Value Source: NWS Daily Summary

Daily Weather History Graph

Daily Weather History Graph

Search for Another Location

Airport:

Trip Planner

Search our weather history database for the weather conditions in past years. The results will help you decide how hot, cold, wet, or windy it might be!

Date:

Astronomy

Jul. 14, 2013 Rise Set
Actual Time 6:16 AM CDT 8:11 PM CDT
Civil Twilight 5:49 AM CDT 8:38 PM CDT
Nautical Twilight 5:16 AM CDT 9:10 PM CDT
Astronomical Twilight 4:41 AM CDT 9:45 PM CDT
Moon 12:02 PM CDT (7/14) 11:56 PM CDT (7/14)
Length of Visible Light 14h 48m
Length of Day
13h 55m
Waxing Crescent, 35% of the Moon is Illuminated
Jul 14
Waxing Crescent
Jul 15
First Quarter
Jul 22
Full
Jul 29
Last Quarter
Aug 6
New

Hourly Weather History & Observations

Time (CDT) Temp. Heat Index Dew Point Humidity Pressure Visibility Wind Dir Wind Speed Gust Speed Precip Events Conditions
12:53 AM 75.9 °F - 70.0 °F 82% 29.93 in 10.0 mi NE 4.6 mph - N/A   Mostly Cloudy
1:53 AM 75.0 °F - 69.1 °F 82% 29.91 in 10.0 mi NE 3.5 mph - N/A   Clear
2:53 AM 73.9 °F - 69.1 °F 85% 29.91 in 10.0 mi ENE 3.5 mph - N/A   Clear
3:53 AM 73.0 °F - 68.0 °F 84% 29.91 in 9.0 mi Calm Calm - N/A   Clear
4:53 AM 72.0 °F - 69.1 °F 91% 29.91 in 8.0 mi Calm Calm - N/A   Clear
5:53 AM 72.0 °F - 69.1 °F 91% 29.91 in 8.0 mi Calm Calm - N/A   Clear
6:53 AM 73.0 °F - 69.1 °F 87% 29.93 in 5.0 mi Calm Calm - N/A   Clear
7:53 AM 75.0 °F - 71.1 °F 87% 29.94 in 5.0 mi Calm Calm - N/A   Clear
8:53 AM 77.0 °F - 73.0 °F 88% 29.94 in 6.0 mi Calm Calm - N/A   Clear
9:53 AM 81.0 °F 86.2 °F 73.9 °F 79% 29.95 in 7.0 mi Calm Calm - N/A   Clear
10:53 AM 84.0 °F 91.2 °F 73.9 °F 72% 29.96 in 10.0 mi Calm Calm - N/A   Clear
11:53 AM 84.9 °F 92.1 °F 73.9 °F 69% 29.97 in 10.0 mi Calm Calm - N/A   Partly Cloudy
12:53 PM 87.1 °F 92.0 °F 70.0 °F 57% 29.97 in 10.0 mi Calm Calm - N/A   Partly Cloudy
1:53 PM 88.0 °F 93.8 °F 71.1 °F 57% 29.96 in 10.0 mi West 4.6 mph - N/A   Scattered Clouds
2:53 PM 82.9 °F 87.5 °F 71.1 °F 67% 29.96 in 10.0 mi ENE 8.1 mph - N/A   Scattered Clouds
3:53 PM 84.0 °F 89.0 °F 71.1 °F 65% 29.94 in 10.0 mi East 5.8 mph - N/A   Clear
4:53 PM 82.9 °F 88.0 °F 72.0 °F 69% 29.93 in 10.0 mi ESE 4.6 mph - N/A   Clear
5:53 PM 84.9 °F 91.4 °F 73.0 °F 67% 29.92 in 10.0 mi Variable 5.8 mph - N/A   Clear
6:53 PM 84.0 °F 90.2 °F 73.0 °F 69% 29.93 in 10.0 mi Calm Calm - N/A   Clear
7:53 PM 82.0 °F 87.4 °F 73.0 °F 74% 29.95 in 10.0 mi East 4.6 mph - N/A   Clear
8:53 PM 78.1 °F - 72.0 °F 81% 29.97 in 10.0 mi East 5.8 mph - N/A   Clear
9:53 PM 75.9 °F - 71.1 °F 85% 29.98 in 10.0 mi Calm Calm - N/A   Clear
10:53 PM 75.0 °F - 71.1 °F 87% 29.98 in 10.0 mi Calm Calm - N/A   Clear
11:53 PM 75.0 °F - 71.1 °F 87% 29.98 in 10.0 mi East 4.6 mph - N/A   Clear